カタログに戻る

FENGYUN 1C DEB

運用中PO
NORAD 30985·DEBRIS·🇨🇳 China

打ち上げ May 10, 1999 から Taiyuan Satellite Launch Center

Loading…

次のパス (今後24時間)

TLE

最新Source: Space-Track

元期: Sep 12, 2026, 01:42 UTC

1 30985U 99025BCB 26255.07126337  .00004094  00000-0  14141-2 0  9999
2 30985  99.2284 194.9762 0041988 301.7609 120.2621 14.35909680654863

AllMySatでFENGYUN 1C DEBをリアルタイム追跡

Download on the App Store